This is the latest recevied weather packets stored in our database for station/object YT1XN-8. If no packets are shown the sender has not sent any weather packets the latest 10 day(s).
| Time | Temp. | Humidity | Pressure | Rain* | Wind** | Luminosity | Snow |
|---|---|---|---|---|---|---|---|
| 1777280500 | 18.33° C | 49% | 1023.4 hPa | 0 mm | - | - | - |
| 1777279840 | 17.78° C | 48% | 1023.5 hPa | 0 mm | - | - | - |
| 1777279180 | 17.78° C | 49% | 1023.6 hPa | 0 mm | - | - | - |
| 1777278520 | 17.22° C | 52% | 1023.6 hPa | 0 mm | - | - | - |
| 1777277860 | 17.22° C | 51% | 1023.7 hPa | 0 mm | - | - | - |
| 1777277200 | 16.67° C | 50% | 1023.7 hPa | 0 mm | - | - | - |
| 1777276540 | 16.67° C | 53% | 1023.8 hPa | 0 mm | - | - | - |
| 1777275880 | 15.56° C | 56% | 1023.8 hPa | 0 mm | - | - | - |
| 1777275220 | 15° C | 56% | 1023.9 hPa | 0 mm | - | - | - |
| 1777274560 | 13.89° C | 55% | 1023.8 hPa | 0 mm | - | - | - |
| 1777273900 | 13.33° C | 59% | 1023.7 hPa | 0 mm | - | - | - |
| 1777273240 | 12.78° C | 61% | 1023.8 hPa | 0 mm | - | - | - |
| 1777272580 | 12.22° C | 60% | 1023.9 hPa | 0 mm | - | - | - |
| 1777271920 | 11.11° C | 65% | 1023.9 hPa | 0 mm | - | - | - |
| 1777271260 | 10.56° C | 65% | 1024 hPa | 0 mm | - | - | - |
| 1777270601 | 10° C | 63% | 1023.9 hPa | 0 mm | - | - | - |
| 1777269941 | 10° C | 65% | 1024 hPa | 0 mm | - | - | - |
| 1777269644 | 9.44° C | 67% | 1024 hPa | 0 mm | - | - | - |
| 1777269281 | 8.89° C | 67% | 1024 hPa | 0 mm | - | - | - |
| 1777268621 | 8.89° C | 67% | 1023.9 hPa | 0 mm | - | - | - |
| 1777268444 | 8.33° C | 68% | 1023.9 hPa | 0 mm | - | - | - |
| 1777267961 | 8.33° C | 70% | 1023.7 hPa | 0 mm | - | - | - |
| 1777267301 | 7.78° C | 68% | 1023.7 hPa | 0 mm | - | - | - |
| 1777266641 | 7.78° C | 68% | 1023.7 hPa | 0 mm | - | - | - |
| 1777265981 | 7.78° C | 68% | 1023.7 hPa | 0 mm | - | - | - |
* Rain latest hour (hover to see other rain measurements)
** Current wind speed in m/s (hover to see current wind gust speed)